User: anonymous   Login
Location: Wilsall
(45.9940°N, 110.6590°W)
Time: 06:54:28
(UTC-06:00)
Language:

GP-B - Orbit

View from above orbital plane
View from above orbital plane
View from above satellite
View from above satellite

Ground track
Ground track

The orbit data is extracted from the following two-line orbital elements,

1 28230U 04014A   16205.29613654  .00000160  00000-0  19804-4 0  9997
2 28230  89.8626 128.0659 0001951  92.4371 267.7075 14.78443988660506
Epoch (UTC): 23 July 2016 07:06:26
Eccentricity: 0.0001951
inclination: 89.8626°
perigee height: 633 km
apogee height: 635 km
right ascension of ascending node: 128.0659°
argument of perigee: 92.4371°
revolutions per day: 14.78443988
mean anomaly at epoch: 267.7075°
orbit number at epoch: 66050

The dashed part of the orbit path shows where the satellite is in the earth's shadow,  

DLR